EW9634 Weather Reports


Display with metric or nautical units.
time (UTC)temp
F
wind
direction
speed
MPH
gust
MPH
rain 1hr
in
rain 24hr
in
rain mn
in
humidity
%
barometer
mb
20260507090009 46 248 2.0 3.0 0.00 0.00 0.00 76 1014.6
20260507085003 46 203 2.0 5.0 0.00 0.00 0.00 75 1014.6
20260507084024 46 225 2.0 3.0 0.00 0.00 0.00 74 1014.6
20260507083024 46 248 3.0 6.0 0.00 0.00 0.00 74 1014.8
20260507082003 46 248 2.0 3.0 0.00 0.00 0.00 75 1014.8
20260507081003 46 248 2.0 4.0 0.00 0.00 0.00 75 1014.7
20260507080027 47 225 1.0 1.0 0.00 0.00 0.00 75 1014.6
20260507075003 46 225 1.0 2.0 0.00 0.00 0.00 76 1014.5
20260507074003 46 0.0 1.0 0.00 0.00 0.00 78 1014.5
20260507073004 46 225 1.0 2.0 0.00 0.00 0.00 78 1014.6
20260507072003 47 225 1.0 1.0 0.00 0.00 0.00 77 1014.7
20260507071004 48 225 2.0 3.0 0.00 0.00 0.00 76 1014.8
20260507070012 48 225 1.0 2.0 0.00 0.00 0.00 75 1015.1
20260507065003 48 225 2.0 3.0 0.00 0.02 0.00 76 1015.2
20260507064003 48 225 1.0 2.0 0.00 0.02 0.00 75 1015.2
20260507063023 48 225 2.0 3.0 0.00 0.02 0.00 75 1015.3
20260507062003 48 203 1.0 2.0 0.00 0.02 0.00 78 1015.2
20260507061003 48 0.0 1.0 0.00 0.02 0.00 79 1015.2
20260507060008 48 203 1.0 2.0 0.00 0.02 0.00 77 1015.2
20260507055023 49 225 2.0 2.0 0.00 0.02 0.00 77 1015.3
20260507054023 48 225 1.0 1.0 0.00 0.02 0.00 77 1015.2
20260507053005 48 225 1.0 2.0 0.00 0.02 0.00 77 1015.3
20260507052023 48 225 1.0 2.0 0.00 0.02 0.00 75 1015.3
20260507051003 48 225 2.0 2.0 0.00 0.02 0.00 76 1015.2
20260507050103 48 225 1.0 2.0 0.00 0.02 0.00 73 1015.3
20260507045102 48 225 2.0 3.0 0.00 0.02 0.02 72 1015.4
20260507044102 47 225 2.0 3.0 0.00 0.02 0.02 74 1015.4
20260507043122 45 270 1.0 2.0 0.00 0.02 0.02 79 1015.3
20260507042102 45 293 1.0 2.0 0.00 0.02 0.02 83 1015.1
20260507041102 45 0.0 1.0 0.00 0.02 0.02 82 1015.2
20260507035004 45 293 1.0 2.0 0.00 0.02 0.02 79 1015.5
20260507034004 46 293 1.0 1.0 0.00 0.02 0.02 78 1015.4
20260507033004 46 315 2.0 2.0 0.00 0.02 0.02 78 1015.3
20260507032005 46 0.0 1.0 0.00 0.02 0.02 80 1015.3
20260507031003 47 0.0 0.0 0.00 0.02 0.02 78 1015.3
20260507030029 47 0.0 1.0 0.00 0.02 0.02 72 1015.3
20260507025004 47 0.0 0.0 0.00 0.02 0.02 69 1015.3
20260507024023 47 0.0 0.0 0.00 0.02 0.02 69 1015.1
20260507023004 47 0.0 0.0 0.00 0.02 0.02 73 1015.1
20260507022003 48 0.0 0.0 0.00 0.02 0.02 69 1014.9
20260507021003 48 0.0 0.0 0.00 0.02 0.02 68 1014.9
20260507020029 49 0.0 0.0 0.00 0.02 0.02 70 1014.8
20260507015004 49 0.0 0.0 0.00 0.02 0.02 66 1014.7
20260507014003 50 0.0 0.0 0.00 0.02 0.02 63 1014.7
20260507013004 52 0.0 0.0 0.00 0.02 0.02 58 1014.7
20260507012003 54 338 2.0 2.0 0.00 0.02 0.02 48 1014.5
20260507010009 55 338 2.0 3.0 0.00 0.02 0.02 46 1014.4
20260507005023 56 315 3.0 4.0 0.00 0.02 0.02 46 1014.4
20260507004025 57 338 3.0 4.0 0.00 0.02 0.02 45 1014.4
20260507003008 57 338 4.0 5.0 0.00 0.02 0.02 43 1014.4
20260507002003 58 338 3.0 4.0 0.00 0.02 0.02 41 1014.5
20260507001003 58 0 9.0 12.0 0.00 0.02 0.02 41 1014.4
20260507000005 58 0 5.0 9.0 0.00 0.02 0.02 42 1014.3
20260506235023 59 338 9.0 11.0 0.00 0.02 0.02 39 1014.4
20260506234004 59 338 10.0 12.0 0.00 0.02 0.02 39 1014.5
20260506233024 59 338 8.0 12.0 0.00 0.02 0.02 41 1014.4
20260506232024 59 315 8.0 10.0 0.00 0.02 0.02 45 1014.4
20260506231003 59 338 10.0 13.0 0.00 0.02 0.02 40 1014.4
20260506230010 59 338 9.0 10.0 0.00 0.02 0.02 40 1014.3
20260506225003 59 0 7.0 11.0 0.00 0.02 0.02 40 1014.4
20260506224003 60 0 12.0 14.0 0.00 0.02 0.02 41 1014.5
20260506223004 60 0 5.0 6.0 0.00 0.02 0.02 40 1014.4
20260506222003 59 315 6.0 9.0 0.00 0.02 0.02 42 1014.4
20260506221003 59 315 11.0 13.0 0.00 0.02 0.02 42 1014.6
20260506220008 60 338 9.0 11.0 0.00 0.02 0.02 42 1014.7
20260506215003 59 338 12.0 15.0 0.00 0.02 0.02 40 1014.8
20260506214003 60 338 12.0 14.0 0.00 0.02 0.02 43 1014.9
20260506213003 60 23 9.0 12.0 0.00 0.02 0.02 41 1015.0
20260506212003 59 0 6.0 9.0 0.00 0.02 0.02 41 1015.1
20260506211003 60 0 8.0 11.0 0.00 0.02 0.02 43 1015.1
20260506210008 59 0 5.0 8.0 0.00 0.03 0.02 47 1015.2
20260506205003 59 0 9.0 10.0 0.00 0.03 0.02 43 1015.4
20260506204003 59 23 5.0 8.0 0.00 0.03 0.02 45 1015.5
20260506203003 59 23 9.0 12.0 0.00 0.03 0.02 42 1015.7
20260506202024 59 315 12.0 15.0 0.00 0.03 0.02 40 1015.7
20260506201003 59 45 5.0 6.0 0.00 0.03 0.02 42 1015.7
20260506200008 59 23 7.0 11.0 0.00 0.05 0.02 45 1015.9
20260506195003 58 315 4.0 5.0 0.00 0.05 0.02 42 1015.9
20260506194003 58 45 10.0 13.0 0.00 0.05 0.02 44 1015.9
20260506193004 57 338 4.0 5.0 0.00 0.05 0.02 46 1016.0
20260506192003 57 23 6.0 8.0 0.00 0.05 0.02 48 1016.0
20260506191003 57 0 2.0 4.0 0.00 0.05 0.02 43 1016.2
20260506190005 57 0 9.0 11.0 0.00 0.08 0.02 45 1016.2
20260506185002 57 315 11.0 15.0 0.00 0.08 0.02 46 1016.3
20260506184002 57 0 8.0 10.0 0.00 0.08 0.02 46 1016.5
20260506183003 57 315 10.0 13.0 0.00 0.08 0.02 46 1016.5
20260506182023 56 338 5.0 8.0 0.00 0.08 0.02 47 1016.6
20260506181002 56 338 11.0 13.0 0.00 0.08 0.02 46 1016.5
20260506180025 55 0 8.0 10.0 0.00 0.11 0.02 47 1016.7
20260506175002 55 315 8.0 10.0 0.00 0.11 0.02 46 1016.8
20260506174003 56 338 14.0 15.0 0.00 0.11 0.02 46 1016.9
20260506173003 55 338 5.0 8.0 0.00 0.11 0.02 47 1016.9
20260506172003 55 338 12.0 16.0 0.00 0.11 0.02 47 1017.0
20260506171022 55 315 13.0 14.0 0.00 0.11 0.02 48 1017.0
20260506170026 55 0 12.0 15.0 0.00 0.29 0.02 48 1016.9
20260506165002 55 0 12.0 17.0 0.00 0.29 0.02 49 1016.8
20260506164004 54 315 7.0 10.0 0.00 0.29 0.02 45 1016.9
20260506163003 55 315 11.0 15.0 0.00 0.29 0.02 48 1016.8
20260506162003 55 0 11.0 15.0 0.00 0.29 0.02 49 1016.6
20260506161002 55 338 10.0 13.0 0.00 0.29 0.02 47 1016.5
20260506160002 55 338 12.0 14.0 0.00 0.32 0.02 49 1016.5
20260506155003 55 338 11.0 14.0 0.00 0.32 0.02 48 1016.4
20260506154003 56 315 10.0 15.0 0.00 0.32 0.02 53 1016.2
20260506153002 55 338 8.0 10.0 0.00 0.32 0.02 52 1016.2
20260506152002 55 338 10.0 12.0 0.00 0.32 0.02 51 1016.2
20260506151022 54 23 7.0 10.0 0.00 0.32 0.02 54 1015.9
20260506150003 54 0 4.0 6.0 0.00 0.38 0.02 55 1016.0
20260506145002 53 315 6.0 9.0 0.00 0.38 0.02 58 1016.1
20260506144003 54 338 5.0 12.0 0.00 0.38 0.02 56 1016.1
20260506143002 53 0 3.0 4.0 0.00 0.38 0.02 56 1016.2
20260506142002 53 315 8.0 9.0 0.00 0.38 0.02 58 1016.1
20260506141002 53 338 6.0 8.0 0.00 0.38 0.02 60 1015.8
20260506140023 52 315 7.0 9.0 0.00 0.43 0.02 68 1015.8
20260506135002 52 338 7.0 9.0 0.00 0.43 0.02 66 1015.8
20260506134002 51 315 8.0 9.0 0.00 0.43 0.02 70 1015.6
20260506133002 51 338 9.0 10.0 0.00 0.43 0.02 73 1015.2
20260506132002 50 315 4.0 7.0 0.00 0.43 0.02 77 1015.2
20260506131002 49 315 5.0 8.0 0.00 0.43 0.02 81 1015.1
20260506130002 48 315 2.0 5.0 0.00 0.44 0.02 85 1014.9
20260506125022 48 293 4.0 5.0 0.00 0.44 0.02 85 1014.8
20260506124002 47 293 3.0 4.0 0.00 0.44 0.02 87 1014.7
20260506123002 47 248 2.0 2.0 0.00 0.44 0.02 88 1014.6
20260506122002 46 270 2.0 3.0 0.00 0.44 0.02 89 1014.4
20260506121002 46 225 2.0 2.0 0.00 0.44 0.02 88 1013.8
20260506120002 46 203 3.0 4.0 0.00 0.44 0.02 87 1013.5
20260506115002 46 158 1.0 2.0 0.00 0.44 0.02 86 1013.3
20260506114022 46 248 2.0 2.0 0.00 0.44 0.02 86 1013.4
20260506113002 46 293 1.0 1.0 0.00 0.44 0.02 86 1013.4
20260506112022 46 293 2.0 3.0 0.00 0.44 0.02 86 1013.6
20260506111002 46 293 5.0 8.0 0.00 0.44 0.02 85 1013.4
20260506110002 46 293 4.0 6.0 0.00 0.44 0.02 84 1013.9
20260506105004 46 293 6.0 9.0 0.00 0.44 0.02 82 1014.2
20260506104008 46 315 5.0 5.0 0.00 0.44 0.02 82 1014.1
20260506103004 46 293 3.0 6.0 0.00 0.44 0.02 89 1014.2
20260506102003 46 293 8.0 10.0 0.00 0.44 0.02 90 1014.5
20260506101004 46 293 4.0 7.0 0.00 0.44 0.02 90 1014.0
20260506100008 45 293 2.0 4.0 0.00 0.44 0.02 91 1013.4
20260506095004 45 315 3.0 4.0 0.00 0.44 0.02 91 1012.8
20260506094004 45 338 2.0 3.0 0.00 0.44 0.02 91 1012.2
20260506093004 45 203 2.0 3.0 0.00 0.44 0.02 91 1012.5
20260506092003 45 0.0 1.0 0.00 0.44 0.02 91 1012.3
20260506091004 46 0.0 0.0 0.00 0.44 0.02 91 1012.5